Location: Unspecified
(0.0000°N, 0.0000°E)
Time: 10:06:14
(UTC+00:00)

Courier 1B Rocket - Pass Details

Date: 23 May 2026
Orbit: 920 x 1201 km, 28.2° (Epoch: 9 June)

Event Time Altitude Azimuth Distance (km) Brightness Sun altitude
Rises 01:18:43 0° 248° (WSW) 3,997 - -61.3°
Reaches altitude 10° 01:21:39 10° 251° (WSW) 2,999 - -60.8°
Maximum altitude 01:28:53 59° 329° (NNW) 1,219 - -59.5°
Drops below altitude 10° 01:35:35 10° 48° (NE) 2,786 - -58.3°
Exits shadow 01:37:29 - 51° (NE) 3,441 8.3 -57.9°
Sets 01:38:13 0° 52° (NE) 3,695 8.5 -57.8°
